Location: Unspecified
(41.1637°N, 24.2901°E)
Time: 17:44:16
(UTC+02:00)

ISS - Pass Details

Date: 21 May 2024
Orbit: 410 x 414 km, 51.6° (Epoch: 18 May)

Event Time Altitude Azimuth Distance (km) Brightness Sun altitude
Rises 20:58:54 0° 308° (NW) 2,348 2.1 -12.9°
Reaches altitude 10° 21:01:35 10° 331° (NNW) 1,484 0.3 -13.2°
Maximum altitude 21:03:44 16° 12° (NNE) 1,178 -1.1 -13.5°
Drops below altitude 10° 21:05:52 10° 52° (NE) 1,481 -1.1 -13.8°
Enters shadow 21:07:19 - 67° (ENE) 1,909 -0.6 -14.0°
